User: anonymous   Login
Location: Unspecified
(0.0000°N, 0.0000°E)
Time: 19:29:43
(UTC+00:00)
Language:

TATIANA 2 - Orbit

View from above orbital plane
View from above orbital plane
View from above satellite
View from above satellite

Ground track
Ground track

The orbit data is extracted from the following two-line orbital elements,

1 35868U 09049D   19340.93615888 +.00000010 +00000-0 +22967-4 0  9998
2 35868 098.4103 332.9113 0004595 025.9792 334.1617 14.22866178530521
Epoch (UTC): 06 December 2019 22:28:04
Eccentricity: 0.0004595
inclination: 98.4103°
perigee height: 812 km
apogee height: 819 km
right ascension of ascending node: 332.9113°
argument of perigee: 25.9792°
revolutions per day: 14.22866178
mean anomaly at epoch: 334.1617°
orbit number at epoch: 53052

The dashed part of the orbit path shows where the satellite is in the earth's shadow,  

DLR